Погода в Вознесенке

Россия / Томская область     56°43′10″N   83°53′47″E
темп.,
°C
ветер,
м/с
пор.,
м/с
влажн.,
%
обл.,
%
осадки,
мм/ч
давл.,
гПа
погр.,
м
17 мая, вт
вт1701:00+15юз2676100 0.4 1009137
04:00+15ю2873100 0.2 1008217
07:00+16ююз4107592 0.2 1008410
10:00+22ю594916 0.0 1006857
13:00+27ююз7123035 0.0 10043121
16:00+28ююз7142477 0.0 10023649
19:00+28ююз6142735 0.0 10013377
22:00+18ю410585 0.4 1003245
18 мая, ср
ср1801:00+17ююз3125827 0.4 1003297
04:00+14зюз246947 0.0 100582
07:00+16юз4115445 0.0 1007595
10:00+21з510345 0.0 10081664
13:00+23з610285 0.0 10092668
16:00+24з582596 0.0 10092716
19:00+23з3526100 0.0 10102346
22:00+17ссз1142100 0.0 101011
19 мая, чт
чт1901:00+16вюв2345100 0.0 101060
04:00+16юв2447100 0.0 100891
07:00+16ююв2854100 0.0 1007232
10:00+22ююв51047100 0.1 1005722
13:00+26ююз6938100 0.1 10031817
16:00+25юз51043100 0.5 10011881
19:00+22юз511415 0.6 10021650
22:00+18зюз61335100 0.0 10051745
20 мая, пт
пт2001:00+14ююз513442 0.0 1007680
04:00+13ююз512481 0.0 1007817
07:00+13ююз6144996 0.0 10071315
10:00+17юз81738100 0.0 10082330
13:00+20зюз814285 0.0 10072829
16:00+21зюз7112317 0.0 10072721
19:00+20зюз5102836 0.0 10072833
22:00+14юз31041100 0.0 1008290
21 мая, сб
сб2101:00+14сз4854100 0.0 1008551
04:00+10юз3979100 0.3 1008333
07:00+11юз3107493 0.3 1009420
10:00+16зюз594276 0.0 10091938
13:00+18зюз5103594 0.0 10082519
16:00+21зюз6102798 0.0 10072969
19:00+19зюз4935100 0.0 10072116
22:00+16вюв3445100 0.0 100586